User: anonymous   Login
Location: Iesi
(43.5167°N, 13.2333°E)
Time: 05:07:28
(UTC+00:00)
Language:

Cosmos 1656 - Orbit

View from above orbital plane
View from above orbital plane
View from above satellite
View from above satellite

Ground track
Ground track

The orbit data is extracted from the following two-line orbital elements,

1 15755U 85042A   20304.38990583 -.00000066  00000-0 -84692-5 0  9994
2 15755  71.1091 289.1828 0037536 297.1279  62.6021 14.20452944835528
Epoch (UTC): 30 October 2020 09:21:27
Eccentricity: 0.0037536
inclination: 71.1091°
perigee height: 797 km
apogee height: 851 km
right ascension of ascending node: 289.1828°
argument of perigee: 297.1279°
revolutions per day: 14.20452944
mean anomaly at epoch: 62.6021°
orbit number at epoch: 83552

The dashed part of the orbit path shows where the satellite is in the earth's shadow,  

DLR